Hlavní strana
METAR-TAF:

METAR-TAF

Letiště :

Bowman Field

Louisville, Kentucky, Spojené státy americké

zeměpisná šířka: 38-13-40N, zeměpisná délka: 085-39-49W, výška: 166 m

Aktuální stav počasí

Zpráva byla vytvořena před 29 minutami, v 09:53 UTC
Severozápadní vítr 11 kt s nárazy do 16 kt
Teplota 3°C
Vlhkost vzduchu 75%
Tlak 1015 hPa
Viditelnost: 16.1 km
Zataženo ve výšce 4100 ft

METAR: KLOU 100953Z AUTO 31011G16KT 10SM OVC041 03/M01 A2998 RMK AO2 RAE0859 SLP150 P0000 T00331011

Čas: 05:22 (10:22 UTC)


TAF: chybějící

Stav a předpovědi počasí z více než 4 000 letišť (zprávy METAR a TAF).

Červené a žluté tečky na mapě představují dostupné meteorologické stanice.

Když kurzor umístíte na tečku, zobrazí se název stanice.

Pak kliknutím zobrazíte stav a předpověď počasí.

Chcete-li změnit mapu, kliknutím na zelené tlačítko se znaménkem +mapu přiblížíte, kliknutím na zelené tlačítko se znaménkem – mapu oddálíte a kliknutím na zelené šipky přejdete na sousední mapy.


METAR-TAF: